Location: Unspecified
(0.0000°N, 0.0000°E)
Time: 12:16:02
(UTC+02:00)

Atlas Centaur 2 - Visible Passes

Search period start: 21 April 2014 00:00
Search period end: 01 May 2014 00:00
Orbit: 460 x 1332 km, 30.4° (Epoch: 20 April)

Date Brightness Start Highest point End Pass type
(mag) Time Alt. Az. Time Alt. Az. Time Alt. Az.
26 Apr 3.3 21:21:26 10° N 21:23:05 14° NNE 21:23:05 14° NNE visible
27 Apr 2.6 21:20:19 10° NNW 21:23:04 23° NNE 21:23:04 23° NNE visible
28 Apr 1.8 21:19:33 10° NW 21:23:05 39° NNE 21:23:05 39° NNE visible
29 Apr 5.0 06:34:23 10° SSE 06:36:22 11° SSE 06:38:26 10° SE visible
29 Apr 0.9 21:19:02 10° NW 21:22:58 70° NNE 21:23:06 69° NE visible
30 Apr 4.7 06:32:31 10° S 06:36:09 15° SSE 06:40:06 10° ESE visible
30 Apr 1.1 21:18:41 10° WNW 21:22:42 67° SSW 21:23:08 60° S visible
